Location: Fort Worth, Tx
(32.7431°N, 97.3695°W)
Time: 05:02:34
(UTC-04:00)

Vanguard 3 - Pass Details

Date: 02 March 2024
Orbit: 510 x 3234 km, 33.3° (Epoch: 24 April)

Event Time Altitude Azimuth Distance (km) Brightness Sun altitude
Rises 21:17:18 0° 257° (WSW) 6,188 12.8 -23.7°
Reaches altitude 10° 21:20:55 10° 258° (WSW) 5,444 12.3 -24.5°
Maximum altitude 21:39:05 89° 171° (S) 3,232 9.9 -28.2°
Enters shadow 21:49:08 40° 83° (E) 4,097 10.1 -30.3°
